{"data":{"norad_id":40024,"epoch":"2026-09-20T01:19:36.466752Z","epoch_age_seconds":52889,"freshness":"FRESH","line1":"1 40024U 14033Q   26263.05528318  .00012159  00000+0  36999-3 0  9998","line2":"2 40024  98.0653 304.0238 0003272 188.2084 171.9104 15.34184642668515","mean_motion":15.34184642,"eccentricity":0.0003272,"inclination_deg":98.0653,"raan_deg":304.0238,"arg_perigee_deg":188.2084,"mean_anomaly_deg":171.9104,"bstar":0.00036999,"rev_number":66851,"period_min":93.860931766517,"perigee_km":461.10487205426,"apogee_km":465.58193683093,"semimajor_km":6841.4804044426,"source":"CELESTRAK","updated_at":"2026-09-20T09:00:48.024547Z"}}